Weather History for Winner, SD

Change the Weather History Date:

Saturday, March 22, 2014

  Actual Average Record
Temperature  
Mean Temperature 22 °F 39 °F  
Max Temperature 29 °F 51 °F 68 °F (2009)
Min Temperature 15 °F 27 °F 15 °F (2014)
Degree Days  
Heating Degree Days 43 26  
Month to date heating degree days 690 657  
Since 1 July heating degree days 6023 5666  
Cooling Degree Days 0 0  
Month to date cooling degree days 0 0  
Year to date cooling degree days 0 0  
Moisture  
Dew Point 9 °F    
Average Humidity 62    
Maximum Humidity 88    
Minimum Humidity 36    
Precipitation  
Precipitation T in 0.06 in 0.09 in (2012)
Month to date precipitation 0.01 0.72  
Year to date precipitation 0.09 1.48  
Sea Level Pressure  
Sea Level Pressure 30.50 in    
Wind  
Wind Speed 9 mph (NNW)    
Max Wind Speed 17 mph    
Max Gust Speed 21 mph    
Visibility 9 miles    
Events Snow    
T = Trace of Precipitation, MM = Missing Value Source: NWS Daily Summary

Daily Weather History Graph

Daily Weather History Graph

Search for Another Location

Airport:

Trip Planner

Search our weather history database for the weather conditions in past years. The results will help you decide how hot, cold, wet, or windy it might be!

Date:

Astronomy

Mar. 22, 2014 Rise Set
Actual Time 7:38 AM CDT 7:54 PM CDT
Civil Twilight 7:10 AM CDT 8:22 PM CDT
Nautical Twilight 6:36 AM CDT 8:56 PM CDT
Astronomical Twilight 6:02 AM CDT 9:30 PM CDT
Moon 1:23 AM CDT (3/22) 11:15 AM CDT (3/22)
Length of Visible Light 13h 12m
Length of Day
12h 15m
Waning Gibbous, 65% of the Moon is Illuminated
Mar 22
Waning Gibbous
Mar 23
Last Quarter
Mar 30
New
Apr 7
First Quarter
Apr 15
Full

Hourly Weather History & Observations

Time (CDT) Temp. Windchill Dew Point Humidity Pressure Visibility Wind Dir Wind Speed Gust Speed Precip Events Conditions
12:53 AM 26.1 °F 13.1 °F 14.0 °F 60% 30.40 in 10.0 mi North 17.3 mph - N/A   Overcast
1:07 AM 25.0 °F 12.2 °F 12.9 °F 60% 30.33 in 10.0 mi North 16.1 mph - N/A   Overcast
1:53 AM 21.0 °F 9.3 °F 12.9 °F 71% 30.43 in 10.0 mi North 11.5 mph - N/A   Clear
2:53 AM 18.0 °F 8.7 °F 12.0 °F 78% 30.45 in 10.0 mi NNW 6.9 mph - N/A   Overcast
3:53 AM 17.1 °F 6.6 °F 12.0 °F 81% 30.44 in 10.0 mi North 8.1 mph - N/A   Mostly Cloudy
4:53 AM 17.1 °F 5.8 °F 12.9 °F 84% 30.45 in 10.0 mi North 9.2 mph - N/A   Overcast
5:53 AM 15.1 °F 7.7 °F 12.0 °F 88% 30.48 in 10.0 mi WNW 4.6 mph - N/A   Overcast
6:04 AM 16.0 °F 7.4 °F 12.0 °F 84% 30.40 in 10.0 mi WNW 5.8 mph - N/A   Overcast
6:53 AM 18.0 °F 6.9 °F 12.0 °F 78% 30.49 in 10.0 mi North 9.2 mph - N/A   Overcast
7:53 AM 17.1 °F 5.8 °F 12.0 °F 81% 30.51 in 10.0 mi NNW 9.2 mph - N/A   Overcast
8:53 AM 18.0 °F 4.8 °F 10.9 °F 74% 30.52 in 10.0 mi North 12.7 mph - N/A   Overcast
9:53 AM 19.0 °F 8.2 °F 12.9 °F 77% 30.54 in 4.0 mi North 9.2 mph - 0.00 in Snow Light Snow
10:13 AM 19.9 °F 11.1 °F 12.0 °F 71% 30.46 in 8.0 mi NNE 6.9 mph - 0.00 in   Overcast
10:20 AM 19.9 °F 11.1 °F 12.0 °F 71% 30.46 in 8.0 mi North 6.9 mph - 0.00 in   Overcast
10:53 AM 19.9 °F 9.3 °F 12.0 °F 71% 30.56 in 9.0 mi NE 9.2 mph - 0.00 in   Overcast
11:53 AM 21.0 °F 12.4 °F 12.0 °F 68% 30.56 in 4.0 mi North 6.9 mph - 0.00 in Snow Light Snow
12:53 PM 21.9 °F 12.5 °F 10.0 °F 60% 30.56 in 10.0 mi North 8.1 mph - 0.00 in   Overcast
1:53 PM 23.0 °F 13.1 °F 10.0 °F 58% 30.56 in 10.0 mi North 9.2 mph - 0.00 in   Overcast
2:29 PM 24.1 °F 17.0 °F 9.0 °F 53% 30.45 in 10.0 mi NNW 5.8 mph - N/A   Overcast
2:53 PM 25.0 °F 14.2 °F 9.0 °F 51% 30.54 in 10.0 mi NNE 11.5 mph - N/A   Overcast
3:53 PM 27.0 °F 17.3 °F 8.1 °F 45% 30.53 in 10.0 mi NNW 10.4 mph 17.3 mph N/A   Mostly Cloudy
4:53 PM 28.9 °F 18.6 °F 6.1 °F 38% 30.53 in 10.0 mi NNW 12.7 mph - N/A   Scattered Clouds
5:53 PM 27.0 °F 17.3 °F 5.0 °F 39% 30.54 in 10.0 mi NNW 10.4 mph - N/A   Overcast
6:53 PM 27.0 °F 18.7 °F 3.9 °F 37% 30.54 in 10.0 mi North 8.1 mph - N/A   Mostly Cloudy
7:53 PM 24.1 °F 13.1 °F 1.9 °F 38% 30.56 in 10.0 mi North 11.5 mph - N/A   Overcast
8:53 PM 21.0 °F 12.4 °F 3.0 °F 46% 30.57 in 10.0 mi NNW 6.9 mph - N/A   Overcast
9:53 PM 19.0 °F 11.1 °F 1.9 °F 47% 30.59 in 10.0 mi NNW 5.8 mph - N/A   Partly Cloudy
10:53 PM 19.0 °F 12.3 °F 3.0 °F 50% 30.59 in 10.0 mi WNW 4.6 mph - N/A   Clear
11:53 PM 17.1 °F 8.7 °F 3.0 °F 54% 30.60 in 10.0 mi WSW 5.8 mph - N/A   Clear